Find Starlink 33768

NORAD ID: 63454 Int'l Des: 2025-069 Owner: SPXS Country: US Constellation: starlink operational
LEOCIRCULAR

Aktuelle Ansicht

3D-Globus wird geladen...

Über Starlink 33768

Beschreibung wird geladen...

Nächste Überflüge

Passes for default location (London). Set your location on the main map for personalized predictions.

Höhenverlauf

Loading altitude history...

Zweizeiliger Elementsatz

1 63454U 25069X 26149.26456194 .00051007 00000-0 11733-2 0 9993
2 63454 53.1585 125.1760 0001344 85.2364 274.8796 15.42173186 65779
Epoch: 29. Mai 2026 • Age: 26 hours

Aktueller Status

Höhe 452.9 km
Geschwindigkeit 7.64 km/s
Subsatellitenpunkt -39.12°S, 34.01°W
Startdatum 4. Apr. 2025
Alter 1.1 years
Typ internet

Technische Details

Klassifizierung Payload
Masse 575.00 kg
Trockenmasse 530.00 kg
Gesamtmasse 575.00 kg
Länge 0.30 m
Durchmesser 4.10 m
Spannweite 29.00 m
Form Box + pan
Hersteller SPXS
Bus-Typ Starlink V2MO
Phasenstatus In Orbit
Besitzer/Staat SPXS/US

Most Searched